• In Czech Republic
  • List of Countries
  • For 7 days
  • Water Temperature
  • Satellite Maps
  • Weather Map
  • Weather Widgets
  • user-avatar
    Login

    Hourly Weather Canberra

    Today, 14 November, Wednesday

    Time Temperature Precipitation Wind Pressure Humidity
    00:00 +18°C° 0 mm 1 mps 709 mmHg 81%
    01:00 +16°C° 0 mm 1 mps 708 mmHg 83%
    02:00 +16°C° 0.3 mm 1 mps 708 mmHg 87%
    03:00 +16°C° 0.3 mm 1 mps 708 mmHg 90%
    04:00 +15°C° 0.3 mm 1 mps 708 mmHg 94%
    05:00 +15°C° 1.1 mm 1 mps 708 mmHg 94%
    06:00 +16°C° 1.1 mm 1 mps 709 mmHg 95%
    07:00 +16°C° 1.1 mm 2 mps 709 mmHg 96%
    08:00 +16°C° 0.7 mm 2 mps 709 mmHg 96%
    09:00 +16°C° 0.7 mm 2 mps 709 mmHg 96%
    10:00 +16°C° 0.7 mm 2 mps 709 mmHg 96%
    11:00 +17°C° 0.2 mm 2 mps 709 mmHg 94%
    12:00 +17°C° 0.2 mm 2 mps 708 mmHg 92%
    13:00 +18°C° 0.2 mm 2 mps 708 mmHg 90%
    14:00 +19°C° 0.3 mm 2 mps 708 mmHg 85%
    15:00 +20°C° 0.3 mm 3 mps 708 mmHg 81%
    16:00 +21°C° 0.3 mm 3 mps 708 mmHg 76%
    17:00 +20°C° 0.4 mm 2 mps 708 mmHg 81%
    18:00 +19°C° 0.4 mm 2 mps 708 mmHg 87%
    19:00 +17°C° 0.4 mm 2 mps 708 mmHg 92%
    20:00 +18°C° 0.1 mm 1 mps 708 mmHg 93%
    21:00 +16°C° 0.1 mm 1 mps 708 mmHg 94%
    22:00 +15°C° 0.1 mm 1 mps 709 mmHg 96%
    23:00 +15°C° 0 mm 1 mps 708 mmHg 96%

    Tomorrow, 15 November, Thursday

    Time Temperature Precipitation Wind Pressure Humidity
    00:00 +14°C° 0 mm 1 mps 708 mmHg 96%
    01:00 +14°C° 0 mm 1 mps 708 mmHg 95%
    02:00 +14°C° 0 mm 1 mps 708 mmHg 95%
    03:00 +13°C° 0 mm 1 mps 709 mmHg 95%
    04:00 +13°C° 0 mm 1 mps 709 mmHg 95%
    05:00 +14°C° 0 mm 1 mps 709 mmHg 92%
    06:00 +16°C° 0 mm 1 mps 710 mmHg 89%
    07:00 +18°C° 0 mm 1 mps 711 mmHg 85%
    08:00 +19°C° 0.2 mm 1 mps 711 mmHg 79%
    09:00 +20°C° 0.2 mm 2 mps 712 mmHg 72%
    10:00 +21°C° 0.2 mm 2 mps 712 mmHg 66%
    11:00 +21°C° 0.4 mm 2 mps 712 mmHg 66%
    12:00 +21°C° 0.4 mm 3 mps 711 mmHg 66%
    13:00 +21°C° 0.4 mm 3 mps 711 mmHg 67%
    14:00 +20°C° 0.8 mm 3 mps 711 mmHg 70%
    15:00 +19°C° 0.8 mm 3 mps 711 mmHg 74%
    16:00 +18°C° 0.8 mm 4 mps 711 mmHg 78%
    17:00 +16°C° 0.2 mm 3 mps 711 mmHg 82%
    18:00 +14°C° 0.2 mm 3 mps 711 mmHg 87%
    19:00 +12°C° 0.2 mm 3 mps 711 mmHg 91%
    20:00 +12°C° 0 mm 3 mps 712 mmHg 90%
    21:00 +11°C° 0 mm 3 mps 712 mmHg 89%
    22:00 +10°C° 0 mm 3 mps 713 mmHg 88%
    23:00 +10°C° 0 mm 3 mps 713 mmHg 88%

    Day after tomorrow, 16 November, Friday

    Time Temperature Precipitation Wind Pressure Humidity
    00:00 +10°C° 0 mm 2 mps 713 mmHg 88%
    01:00 +9°C° 0 mm 2 mps 713 mmHg 88%
    02:00 +8°C° 0 mm 2 mps 712 mmHg 90%
    03:00 +8°C° 0 mm 2 mps 712 mmHg 93%
    04:00 +7°C° 0 mm 2 mps 712 mmHg 95%
    05:00 +9°C° 0 mm 2 mps 712 mmHg 90%
    06:00 +10°C° 0 mm 2 mps 712 mmHg 85%
    07:00 +12°C° 0 mm 2 mps 713 mmHg 80%
    08:00 +13°C° 0 mm 3 mps 713 mmHg 74%
    09:00 +16°C° 0 mm 3 mps 713 mmHg 68%
    10:00 +17°C° 0 mm 3 mps 713 mmHg 62%
    11:00 +18°C° 0 mm 3 mps 712 mmHg 60%
    12:00 +19°C° 0 mm 3 mps 712 mmHg 59%
    13:00 +19°C° 0 mm 3 mps 711 mmHg 57%
    14:00 +19°C° 0 mm 3 mps 711 mmHg 57%
    15:00 +20°C° 0 mm 3 mps 710 mmHg 57%
    16:00 +20°C° 0 mm 2 mps 710 mmHg 57%
    17:00 +18°C° 0.1 mm 2 mps 710 mmHg 66%
    18:00 +16°C° 0.1 mm 2 mps 710 mmHg 75%
    19:00 +15°C° 0.1 mm 2 mps 710 mmHg 84%
    20:00 +14°C° 0 mm 2 mps 710 mmHg 88%
    21:00 +13°C° 0 mm 2 mps 710 mmHg 91%
    22:00 +12°C° 0 mm 2 mps 710 mmHg 95%
    23:00 +12°C° 0.1 mm 2 mps 710 mmHg 95%

    17 November, Saturday

    Time Temperature Precipitation Wind Pressure Humidity
    00:00 +12°C° 0.1 mm 1 mps 710 mmHg 95%
    01:00 +12°C° 0.1 mm 1 mps 710 mmHg 95%
    02:00 +12°C° 0.2 mm 1 mps 710 mmHg 96%
    03:00 +12°C° 0.2 mm 1 mps 709 mmHg 97%
    04:00 +12°C° 0.2 mm 1 mps 709 mmHg 97%
    05:00 +12°C° 0.1 mm 1 mps 710 mmHg 94%
    06:00 +13°C° 0.1 mm 2 mps 710 mmHg 90%
    07:00 +13°C° 0.1 mm 3 mps 711 mmHg 87%
    08:00 +14°C° 0.1 mm 3 mps 711 mmHg 81%
    09:00 +14°C° 0.1 mm 4 mps 712 mmHg 75%
    10:00 +15°C° 0.1 mm 5 mps 712 mmHg 69%
    11:00 +16°C° 0 mm 5 mps 712 mmHg 64%
    12:00 +18°C° 0 mm 4 mps 712 mmHg 58%
    13:00 +19°C° 0 mm 4 mps 712 mmHg 53%
    14:00 +18°C° 0 mm 4 mps 712 mmHg 55%
    15:00 +18°C° 0 mm 4 mps 712 mmHg 57%
    16:00 +17°C° 0 mm 4 mps 712 mmHg 59%
    17:00 +15°C° 0 mm 4 mps 712 mmHg 66%
    18:00 +13°C° 0 mm 4 mps 713 mmHg 73%
    19:00 +12°C° 0 mm 3 mps 713 mmHg 80%
    20:00 +11°C° 0 mm 3 mps 714 mmHg 83%
    21:00 +11°C° 0 mm 3 mps 714 mmHg 86%
    22:00 +10°C° 0 mm 3 mps 715 mmHg 89%
    23:00 +10°C° 0 mm 3 mps 715 mmHg 90%

    18 November, Sunday

    Time Temperature Precipitation Wind Pressure Humidity
    00:00 +9°C° 0 mm 2 mps 714 mmHg 90%
    01:00 +9°C° 0 mm 2 mps 714 mmHg 91%
    02:00 +8°C° 0 mm 2 mps 714 mmHg 93%
    03:00 +7°C° 0 mm 2 mps 714 mmHg 94%
    04:00 +6°C° 0 mm 2 mps 714 mmHg 95%
    05:00 +8°C° 0 mm 2 mps 714 mmHg 89%
    06:00 +9°C° 0 mm 3 mps 714 mmHg 83%
    07:00 +11°C° 0 mm 3 mps 715 mmHg 76%
    08:00 +13°C° 0 mm 3 mps 715 mmHg 67%
    09:00 +15°C° 0 mm 4 mps 715 mmHg 57%
    10:00 +18°C° 0 mm 4 mps 715 mmHg 48%
    11:00 +19°C° 0 mm 4 mps 715 mmHg 45%
    12:00 +20°C° 0 mm 4 mps 715 mmHg 42%
    13:00 +21°C° 0 mm 4 mps 714 mmHg 39%
    14:00 +21°C° 0 mm 4 mps 714 mmHg 41%
    15:00 +21°C° 0 mm 4 mps 714 mmHg 42%
    16:00 +21°C° 0 mm 4 mps 713 mmHg 44%
    17:00 +19°C° 0 mm 4 mps 713 mmHg 53%
    18:00 +16°C° 0 mm 3 mps 713 mmHg 63%
    19:00 +13°C° 0 mm 3 mps 714 mmHg 72%
    20:00 +12°C° 0 mm 3 mps 714 mmHg 79%
    21:00 +10°C° 0 mm 2 mps 714 mmHg 87%
    22:00 +9°C° 0 mm 2 mps 714 mmHg 94%
    23:00 +8°C° 0 mm 2 mps 714 mmHg 95%

    19 November, Monday

    Time Temperature Precipitation Wind Pressure Humidity
    00:00 +9°C° 0 mm 1 mps 714 mmHg 96%
    01:00 +8°C° 0 mm 1 mps 713 mmHg 97%
    02:00 +8°C° 0 mm 1 mps 713 mmHg 97%
    03:00 +8°C° 0 mm 1 mps 713 mmHg 97%
    04:00 +7°C° 0 mm 1 mps 712 mmHg 97%
    05:00 +9°C° 0 mm 1 mps 713 mmHg 89%
    06:00 +11°C° 0 mm 1 mps 713 mmHg 81%
    07:00 +13°C° 0 mm 2 mps 713 mmHg 74%
    08:00 +16°C° 0 mm 2 mps 713 mmHg 62%
    09:00 +18°C° 0 mm 2 mps 713 mmHg 51%
    10:00 +21°C° 0 mm 2 mps 713 mmHg 40%
    11:00 +23°C° 0 mm 2 mps 713 mmHg 36%
    12:00 +25°C° 0 mm 2 mps 712 mmHg 32%
    13:00 +26°C° 0 mm 2 mps 712 mmHg 28%
    14:00 +26°C° 0 mm 2 mps 711 mmHg 28%
    15:00 +26°C° 0 mm 2 mps 711 mmHg 28%
    16:00 +26°C° 0 mm 2 mps 710 mmHg 28%
    17:00 +24°C° 0 mm 2 mps 710 mmHg 37%
    18:00 +20°C° 0 mm 2 mps 710 mmHg 46%
    19:00 +18°C° 0 mm 1 mps 709 mmHg 55%
    20:00 +16°C° 0 mm 1 mps 710 mmHg 66%
    21:00 +14°C° 0 mm 1 mps 710 mmHg 78%
    22:00 +13°C° 0 mm 1 mps 710 mmHg 89%
    23:00 +12°C° 0 mm 1 mps 709 mmHg 91%
    Show more